Weather History for Montevideo, MN

Change the Weather History Date:

Sunday, May 5, 2013

  Actual Average Record
Temperature  
Mean Temperature 44 °F -  
Max Temperature 51 °F 70 °F 91 °F (1949)
Min Temperature 37 °F 42 °F 5 °F (1998)
Degree Days  
Heating Degree Days 21    
Moisture  
Dew Point 41 °F    
Average Humidity 93    
Maximum Humidity 100    
Minimum Humidity 76    
Precipitation  
Precipitation 0.00 in - - ()
Sea Level Pressure  
Sea Level Pressure 30.18 in    
Wind  
Wind Speed 6 mph (NNE)    
Max Wind Speed 10 mph    
Max Gust Speed -    
Visibility 7 miles    
Events Rain    
Averages and records for this station are not official NWS values.
T = Trace of Precipitation, MM = Missing Value Source: NWS Daily Summary

Daily Weather History Graph

Daily Weather History Graph

Search for Another Location

Airport:

Trip Planner

Search our weather history database for the weather conditions in past years. The results will help you decide how hot, cold, wet, or windy it might be!

Date:

Astronomy

May. 05, 2013 Rise Set
Actual Time 6:06 AM CDT 8:33 PM CDT
Civil Twilight 5:33 AM CDT 9:06 PM CDT
Nautical Twilight 4:52 AM CDT 9:47 PM CDT
Astronomical Twilight 4:05 AM CDT 10:34 PM CDT
Moon 3:48 AM CDT (5/5) 4:24 PM CDT (5/5)
Length of Visible Light 15h 33m
Length of Day
14h 27m
Waning Crescent, 18% of the Moon is Illuminated
May 5
Waning Crescent
May 9
New
May 17
First Quarter
May 24
Full
May 31
Last Quarter

Hourly Weather History & Observations

Time (CDT) Temp. Windchill Dew Point Humidity Pressure Visibility Wind Dir Wind Speed Gust Speed Precip Events Conditions
12:14 AM 37.4 °F 32.8 °F 37.4 °F 100% 30.21 in 1.8 mi NNE 5.8 mph - N/A   Light Drizzle
12:34 AM 39.2 °F 35.0 °F 39.2 °F 100% 30.22 in 4.0 mi NE 5.8 mph - N/A   Overcast
12:54 AM 39.2 °F 35.0 °F 39.2 °F 100% 30.21 in 4.0 mi NE 5.8 mph - N/A   Light Drizzle
1:14 AM 39.2 °F 35.9 °F 39.2 °F 100% 30.21 in 7.0 mi NE 4.6 mph - N/A   Light Drizzle
1:34 AM 39.2 °F 35.9 °F 39.2 °F 100% 30.21 in 4.0 mi NNE 4.6 mph - N/A   Light Drizzle
1:54 AM 39.2 °F 35.9 °F 39.2 °F 100% 30.20 in 1.0 mi NNE 4.6 mph - N/A   Light Drizzle
2:14 AM 39.2 °F 35.9 °F 39.2 °F 100% 30.20 in 0.8 mi NNE 4.6 mph - N/A   Light Drizzle
2:34 AM 39.2 °F 35.0 °F 39.2 °F 100% 30.19 in 0.8 mi NNE 5.8 mph - N/A   Overcast
2:54 AM 39.2 °F 35.0 °F 39.2 °F 100% 30.19 in 1.0 mi NE 5.8 mph - N/A   Overcast
3:14 AM 39.2 °F 35.0 °F 39.2 °F 100% 30.19 in 1.0 mi NE 5.8 mph - N/A   Overcast
3:34 AM 39.2 °F 35.0 °F 39.2 °F 100% 30.19 in 0.8 mi NNE 5.8 mph - N/A   Overcast
3:54 AM 39.2 °F 35.0 °F 39.2 °F 100% 30.19 in 0.8 mi NNE 5.8 mph - N/A   Overcast
4:14 AM 39.2 °F 35.0 °F 39.2 °F 100% 30.19 in 0.8 mi NNE 5.8 mph - N/A   Overcast
4:34 AM 39.2 °F 35.0 °F 39.2 °F 100% 30.19 in 0.8 mi North 5.8 mph - N/A   Overcast
4:54 AM 39.2 °F 35.9 °F 39.2 °F 100% 30.20 in 0.8 mi North 4.6 mph - N/A   Light Drizzle
5:14 AM 37.4 °F 32.1 °F 37.4 °F 100% 30.19 in 1.0 mi North 6.9 mph - N/A   Overcast
5:34 AM 37.4 °F 31.4 °F 37.4 °F 100% 30.20 in 0.8 mi North 8.1 mph - N/A   Overcast
5:54 AM 37.4 °F 31.4 °F 37.4 °F 100% 30.20 in 0.8 mi NNE 8.1 mph - N/A   Light Drizzle
6:14 AM 37.4 °F 32.1 °F 37.4 °F 100% 30.20 in 1.0 mi NNE 6.9 mph - N/A   Overcast
6:34 AM 37.4 °F 32.8 °F 37.4 °F 100% 30.20 in 1.2 mi NNE 5.8 mph - N/A   Overcast
6:54 AM 37.4 °F 32.1 °F 37.4 °F 100% 30.20 in 1.5 mi NNE 6.9 mph - N/A   Overcast
7:14 AM 37.4 °F 32.1 °F 37.4 °F 100% 30.20 in 2.0 mi NNE 6.9 mph - N/A   Overcast
7:34 AM 37.4 °F 32.1 °F 37.4 °F 100% 30.21 in 2.0 mi NE 6.9 mph - N/A   Overcast
7:54 AM 39.2 °F 33.6 °F 39.2 °F 100% 30.21 in 3.0 mi NE 8.1 mph - N/A   Overcast
8:14 AM 39.2 °F 33.6 °F 39.2 °F 100% 30.21 in 5.0 mi NE 8.1 mph - N/A   Overcast
8:34 AM 39.2 °F 35.0 °F 39.2 °F 100% 30.21 in 7.0 mi NE 5.8 mph - N/A   Overcast
8:54 AM 39.2 °F 35.0 °F 39.2 °F 100% 30.21 in 7.0 mi NNE 5.8 mph - N/A   Overcast
9:14 AM 39.2 °F 35.9 °F 39.2 °F 100% 30.21 in 10.0 mi NNE 4.6 mph - N/A   Overcast
9:34 AM 41.0 °F 38.0 °F 41.0 °F 100% 30.21 in 10.0 mi NNE 4.6 mph - N/A   Overcast
9:54 AM 41.0 °F 38.0 °F 41.0 °F 100% 30.21 in 10.0 mi NE 4.6 mph - N/A   Overcast
10:14 AM 42.8 °F 39.3 °F 41.0 °F 93% 30.21 in 10.0 mi North 5.8 mph - N/A   Overcast
10:34 AM 42.8 °F 38.0 °F 41.0 °F 93% 30.20 in 10.0 mi North 8.1 mph - N/A   Overcast
10:59 AM 42.8 °F 38.6 °F 42.8 °F 100% 30.20 in 10.0 mi NNW 6.9 mph - N/A   Overcast
11:14 AM 42.8 °F 38.6 °F 42.8 °F 100% 30.20 in 10.0 mi North 6.9 mph - N/A   Overcast
11:34 AM 42.8 °F 38.0 °F 42.8 °F 100% 30.20 in 10.0 mi North 8.1 mph - N/A   Overcast
11:54 AM 42.8 °F 38.6 °F 41.0 °F 93% 30.20 in 10.0 mi NNW 6.9 mph - N/A   Overcast
12:13 PM 44.6 °F 39.7 °F 42.8 °F 93% 30.20 in 10.0 mi NNE 9.2 mph - N/A   Overcast
12:34 PM 44.6 °F 40.2 °F 42.8 °F 93% 30.20 in 10.0 mi North 8.1 mph - N/A   Overcast
1:13 PM 44.6 °F 40.7 °F 42.8 °F 93% 30.20 in 10.0 mi North 6.9 mph - N/A Rain Light Rain
1:34 PM 44.6 °F 40.7 °F 42.8 °F 93% 30.19 in 10.0 mi North 6.9 mph - N/A   Drizzle
1:54 PM 46.4 °F 42.9 °F 42.8 °F 87% 30.19 in 10.0 mi North 6.9 mph - N/A   Overcast
2:13 PM 46.4 °F 42.9 °F 42.8 °F 87% 30.19 in 10.0 mi North 6.9 mph - N/A   Overcast
2:34 PM 46.4 °F 41.9 °F 42.8 °F 87% 30.18 in 10.0 mi NNE 9.2 mph - N/A   Overcast
2:54 PM 46.4 °F 42.4 °F 42.8 °F 87% 30.18 in 10.0 mi NNE 8.1 mph - N/A   Overcast
3:34 PM 48.2 °F - 42.8 °F 82% 30.17 in 10.0 mi North 8.1 mph - N/A   Overcast
3:54 PM 48.2 °F - 44.6 °F 87% 30.16 in 10.0 mi NNE 8.1 mph - N/A   Overcast
4:14 PM 50.0 °F - 44.6 °F 82% 30.16 in 10.0 mi NNE 8.1 mph - N/A   Overcast
4:34 PM 50.0 °F - 44.6 °F 82% 30.15 in 10.0 mi North 9.2 mph - N/A   Overcast
4:54 PM 50.0 °F - 44.6 °F 82% 30.15 in 10.0 mi NNE 10.4 mph - N/A   Overcast
5:14 PM 51.8 °F - 44.6 °F 76% 30.14 in 10.0 mi North 9.2 mph - N/A   Overcast
5:34 PM 50.0 °F - 44.6 °F 82% 30.15 in 10.0 mi NNE 9.2 mph - N/A   Mostly Cloudy
5:54 PM 50.0 °F - 44.6 °F 82% 30.14 in 10.0 mi North 9.2 mph - N/A   Scattered Clouds
6:14 PM 50.0 °F - 44.6 °F 82% 30.14 in 10.0 mi North 9.2 mph - N/A   Scattered Clouds
6:34 PM 50.0 °F - 44.6 °F 82% 30.14 in 10.0 mi NNE 6.9 mph - N/A   Mostly Cloudy
6:54 PM 50.0 °F - 44.6 °F 82% 30.14 in 10.0 mi NNE 6.9 mph - N/A   Mostly Cloudy
7:14 PM 50.0 °F - 44.6 °F 82% 30.14 in 10.0 mi North 8.1 mph - N/A   Mostly Cloudy
7:34 PM 50.0 °F - 42.8 °F 76% 30.14 in 10.0 mi North 6.9 mph - N/A   Overcast
7:54 PM 50.0 °F - 44.6 °F 82% 30.14 in 10.0 mi North 4.6 mph - N/A   Overcast
8:14 PM 48.2 °F - 44.6 °F 87% 30.14 in 10.0 mi North 3.5 mph - N/A   Overcast
8:34 PM 48.2 °F - 44.6 °F 87% 30.14 in 10.0 mi Calm Calm - N/A   Overcast
8:54 PM 48.2 °F - 44.6 °F 87% 30.14 in 10.0 mi NNW 3.5 mph - N/A   Overcast
9:33 PM 48.2 °F - 42.8 °F 82% 30.14 in 10.0 mi NNW 3.5 mph - N/A   Overcast
9:54 PM 48.2 °F - 42.8 °F 82% 30.14 in 10.0 mi NW 5.8 mph - N/A   Overcast
10:08 PM 46.4 °F 43.5 °F 42.8 °F 87% 30.14 in 10.0 mi NW 5.8 mph - N/A   Overcast
10:34 PM 46.4 °F 43.5 °F 42.8 °F 87% 30.14 in 10.0 mi NNW 5.8 mph - N/A   Overcast
10:54 PM 46.4 °F 42.9 °F 42.8 °F 87% 30.14 in 10.0 mi NNW 6.9 mph - N/A   Overcast
11:14 PM 46.4 °F 42.9 °F 42.8 °F 87% 30.15 in 10.0 mi NNW 6.9 mph - N/A   Mostly Cloudy
11:34 PM 46.4 °F 44.3 °F 42.8 °F 87% 30.15 in 10.0 mi NNW 4.6 mph - N/A   Scattered Clouds
11:54 PM 46.4 °F 43.5 °F 42.8 °F 87% 30.15 in 10.0 mi NNW 5.8 mph - N/A   Mostly Cloudy